Location: Chattahoochee River National Recreation Area
(34.0022°N, 84.2416°W)
Time: 00:22:58
(UTC-04:00)

Daily predictions for brighter satellites

Satellite Brightness Start Highest point End
(mag) Time Altitude Azimuth Time Altitude Azimuth Time Altitude Azimuth
Milstar 3 4.4 04:25:46 25° ESE 04:25:46 25° ESE 04:28:29 10° ESE
Okean O Rocket 4.2 04:55:29 10° NE 04:56:59 17° NE 04:56:59 17° NE
CZ-4C R/B 3.4 05:12:18 48° S 05:12:18 48° S 05:17:57 10° SSE
NOSS 3-1 (A) 4.0 05:11:55 48° NE 05:11:55 48° NE 05:16:22 10° NNE
USA 267 3.8 05:11:55 10° ESE 05:18:13 53° NE 05:20:22 39° N
SJ 16-02 2.9 05:36:01 28° NNE 05:36:01 28° NNE 05:38:06 10° NNE
Meteor 2-5 Rocket 3.7 05:34:52 53° S 05:36:21 85° E 05:42:12 10° N
CZ-4B R/B 3.7 05:32:25 10° NNE 05:37:53 60° ESE 05:43:24 10° S
Cosmos 372 Rocket 4.1 05:45:22 62° NNW 05:45:22 62° NNW 05:49:51 10° NNE
USA 81 4.3 05:42:59 10° S 05:48:12 67° E 05:53:26 10° N
Cosmos 1809 Rocket 4.4 05:42:06 10° N 05:48:15 82° E 05:54:24 10° S
Cosmos 962 Rocket 4.3 05:46:41 10° N 05:52:47 74° W 05:58:51 10° S
OAO 2 Rocket 3.4 05:53:05 60° SSW 05:53:05 60° SSW 05:57:56 10° ESE
ERBS 3.3 05:56:38 46° ESE 05:56:38 46° ESE 05:59:19 10° SE
Tiangong 2 3.6 05:58:34 16° SSE 05:58:34 16° SSE 05:59:24 10° SSE
Cosmos 1269 Rocket 4.3 05:55:24 10° N 06:00:41 67° ENE 06:05:57 10° SSE
Cosmos 2278 4.4 05:56:31 10° S 06:01:59 54° ESE 06:07:29 10° NNE
Cosmos 468 4.4 06:03:56 36° NW 06:05:58 63° WSW 06:11:13 10° S
GPS 2-04 Rocket1 4.5 06:08:41 19° S 06:08:41 19° S 06:10:30 10° SSE
Meteor 2-21 Rocket 4.3 06:04:51 10° N 06:10:56 85° W 06:17:03 10° S
Cosmos 2181 Rocket 4.1 06:07:18 10° SSW 06:13:18 49° W 06:19:17 10° N
Cosmos 1125 Rocket 4.2 06:14:18 34° NW 06:14:18 34° NW 06:18:31 10° N
Cosmos-2242 3.8 06:16:07 33° SW 06:16:07 33° SW 06:18:48 10° SSW
Cosmos 2227 Rocket 3.2 06:09:36 10° N 06:15:03 46° ENE 06:20:27 10° SE
Cosmos 2341 Rocket 4.2 06:12:02 10° NNW 06:18:05 46° W 06:24:07 10° SSW
CZ-3 Stage 3 3.4 06:18:26 33° WSW 06:20:46 73° S 06:42:40 10° E
Cosmos 1959 Rocket 4.4 06:16:00 10° N 06:22:17 86° W 06:28:28 10° S
NOSS 2-3 (D) 3.7 06:18:42 14° SSW 06:22:35 84° ESE 06:27:42 10° NNE
SJ-6F 4.2 06:20:13 10° N 06:24:18 80° W 06:28:20 10° SSW
Meteor 1-24 Rocket 3.9 06:18:45 10° SSW 06:24:40 58° W 06:30:30 10° N
ADEOS II 4.1 06:26:03 10° NNW 06:26:43 12° NNW 06:26:43 12° NNW
NOAA 6 4.3 06:29:11 10° NNE 06:34:20 70° ESE 06:39:27 10° S
IDEFIX/ARIANE 42P 4.1 06:29:33 10° NNE 06:34:26 39° E 06:39:16 10° SSE
SL-08 R/B 4.4 06:28:24 10° N 06:34:37 82° W 06:40:55 10° S
Okean O Rocket 2.9 06:31:50 10° NNW 06:34:26 22° NW 06:34:26 22° NW
Cosmos 1656 3.6 06:31:09 10° SSW 06:36:50 85° WNW 06:42:34 10° NNE
CZ-4B R/B 4.4 06:33:42 10° N 06:37:59 45° WNW 06:42:14 10° SW
Cosmos 2084 Rocket 4.1 06:40:46 25° W 06:42:28 34° NW 06:46:16 10° NNE
Meteor 1-31 Rocket 3.4 06:39:39 10° N 06:43:02 31° WNW 06:46:26 10° SW
Cosmos 2219 3.9 06:42:24 13° NW 06:46:28 30° WSW 06:51:16 10° SSW
Cosmos 2221 3.1 06:42:39 10° N 06:47:00 60° E 06:51:18 10° SSE
KORONAS-FOTON 3.8 06:43:53 10° S 06:47:39 80° E 06:51:26 10° N
COSMO-SKYMED 1 3.1 06:43:49 10° SSE 06:48:05 63° ENE 06:52:24 10° N
ATLAS 2AS CENTAUR R/B 3.2 06:41:09 10° SSW 06:48:41 77° ESE 06:56:47 10° NNE
Cosmos 1818 3.7 06:44:02 10° SSW 06:49:24 77° ESE 06:54:51 10° NNE
OAO 3 Copernicus 4.3 06:45:53 18° WSW 06:49:36 81° SSE 06:54:39 10° E
Cosmos 2297 Rocket 2.3 06:46:35 10° NNW 06:52:15 80° ENE 06:57:54 10° SSE
Cosmos 2251 Rocket 4.2 06:49:50 10° N 06:55:10 60° ENE 07:00:26 10° SSE
Cosmos 1697 Rocket 2.7 06:49:46 10° SSW 06:55:25 89° WNW 07:01:07 10° NNE
NOSS 2-3 (E) 4.1 06:51:37 10° SW 06:56:00 44° NW 07:00:59 10° NNE
Okean-O 2.6 06:52:10 10° N 06:56:32 63° WNW 07:00:54 10° SSW
Cosmos 1908 3.1 06:53:55 10° N 06:57:44 72° W 07:01:32 10° S
Cosmos 2366 rocket 4.2 06:53:54 10° NNW 06:59:43 45° W 07:05:33 10° SSW
USA 267 3.9 06:55:21 10° S 07:01:16 36° SW 07:07:13 10° WNW
EO 1 Del DPAF 3.2 06:58:37 10° S 07:02:23 61° WSW 07:06:12 10° NNW
Cosmos 2082 3.7 06:57:31 10° NNW 07:03:11 84° WSW 07:08:47 10° SSE
Cosmos 1842 Rocket 4.2 07:00:52 10° NNW 07:04:42 31° W 07:08:31 10° SSW
Milstar 3 3.9 06:59:21 11° WSW 07:04:51 33° SSW 07:12:14 10° SE
Feng Yun 1-1 Rocket 4.5 07:03:01 10° N 07:08:30 52° WNW 07:14:06 10° SSW
CZ-3 R/B 4.0 06:53:29 13° W 07:10:11 29° SW 07:17:13 10° S
Cosmos 1980 Rocket 2.6 07:04:57 10° S 07:10:29 69° ESE 07:16:04 10° NNE
Meteor 1-28 Rocket 4.1 07:11:03 10° SSW 07:14:21 28° W 07:17:40 10° NW
ATLAS 3B R/B 4.2 07:13:01 10° NNW 07:18:54 32° NE 07:24:38 10° ESE
Meteor 1-21 Rocket 4.4 07:14:35 10° SSW 07:20:13 53° W 07:25:48 10° N
Cosmos 1300 3.5 07:16:44 10° N 07:20:30 56° E 07:24:15 10° SSE
Cosmos 1076 Rocket 3.7 07:17:43 10° SSW 07:21:57 51° W 07:26:10 10° N
